Location: ?astrovice
(49.6513°N, 14.9287°E)
Time: 05:12:17
(UTC+00:00)

BEESAT - Pass Details

Date: 30 October 2021
Orbit: 700 x 707 km, 98.6° (Epoch: 06 December)

Event Time Altitude Azimuth Distance (km) Brightness Sun altitude
Rises 04:04:50 0° 115° (ESE) 3,082 ? -16.8°
Reaches altitude 10° 04:07:45 10° 96° (E) 2,169 ? -16.3°
Maximum altitude 04:10:46 17° 56° (ENE) 1,740 ? -15.8°
Drops below altitude 10° 04:13:48 10° 17° (NNE) 2,178 ? -15.4°
Sets 04:16:45 0° 358° (N) 3,101 ? -14.9°
